DW5679 Weather Reports


Display with metric or nautical units.
time (UTC)temp
F
wind
direction
speed
MPH
gust
MPH
rain 1hr
in
rain 24hr
in
rain mn
in
humidity
%
barometer
mb
20260503001528 69 12 1.0 7.0 0.00 0.00 0.00 38 1017.6
20260503001515 69 5 0.0 7.0 0.00 0.00 0.00 39 1018.3
20260503000041 70 349 1.0 6.0 0.00 0.00 0.00 37 1017.6
20260503000025 70 323 1.0 6.0 0.00 0.00 0.00 38 1018.2
20260502234556 70 318 2.0 6.0 0.00 0.00 0.00 40 1017.9
20260502234520 70 16 2.0 6.0 0.00 0.00 0.00 37 1017.4
20260502233040 70 320 2.0 12.0 0.00 0.00 0.00 40 1018.1
20260502233019 70 355 3.0 12.0 0.00 0.00 0.00 37 1017.4
20260502231604 69 342 2.0 7.0 0.00 0.00 0.00 38 1018.2
20260502231533 69 18 3.0 7.0 0.00 0.00 0.00 37 1017.4
20260502230105 69 349 2.0 8.0 0.00 0.00 0.00 39 1018.2
20260502230026 70 8 2.0 8.0 0.00 0.00 0.00 38 1017.4
20260502224527 70 14 3.0 10.0 0.00 0.00 0.00 42 1017.4
20260502224516 70 49 2.0 10.0 0.00 0.00 0.00 43 1018.2
20260502223120 70 6 3.0 10.0 0.00 0.00 0.00 38 1018.2
20260502223029 70 2 3.0 10.0 0.00 0.00 0.00 37 1017.4
20260502221530 69 339 3.0 7.0 0.00 0.00 0.00 41 1018.1
20260502221522 69 38 4.0 7.0 0.00 0.00 0.00 39 1017.3
20260502220029 69 27 3.0 10.0 0.00 0.00 0.00 40 1018.0
20260502220020 69 357 4.0 10.0 0.00 0.00 0.00 39 1017.3
20260502214530 70 38 5.0 10.0 0.00 0.00 0.00 39 1017.4
20260502214528 70 340 5.0 10.0 0.00 0.00 0.00 38 1018.1
20260502213037 69 353 3.0 7.0 0.00 0.00 0.00 40 1017.5
20260502213027 69 333 3.0 7.0 0.00 0.00 0.00 40 1018.2
20260502211534 70 360 6.0 10.0 0.00 0.00 0.00 39 1017.6
20260502211526 70 335 5.0 10.0 0.00 0.00 0.00 39 1018.3
20260502210034 70 356 4.0 10.0 0.00 0.00 0.00 39 1018.4
20260502210024 70 45 4.0 10.0 0.00 0.00 0.00 39 1017.7
20260502204525 70 335 4.0 11.0 0.00 0.00 0.00 39 1018.6
20260502203024 70 330 3.0 9.0 0.00 0.00 0.00 42 1018.8
20260502203022 70 337 3.0 9.0 0.00 0.00 0.00 39 1018.0
20260502201528 69 43 4.0 8.0 0.00 0.00 0.00 41 1018.2
20260502201521 69 342 3.0 8.0 0.00 0.00 0.00 40 1018.8
20260502200021 69 3 4.0 12.0 0.00 0.00 0.00 38 1018.5
20260502194529 68 332 3.0 7.0 0.00 0.00 0.00 41 1019.1
20260502194512 68 341 4.0 7.0 0.00 0.00 0.00 41 1018.7
20260502193016 67 345 5.0 11.0 0.00 0.00 0.00 45 1019.5
20260502193012 67 2 5.0 11.0 0.00 0.00 0.00 44 1019.0
20260502191514 68 326 2.0 11.0 0.00 0.00 0.00 44 1019.5
20260502191508 68 356 3.0 11.0 0.00 0.00 0.00 44 1019.0
20260502190015 68 331 2.0 9.0 0.00 0.00 0.00 46 1019.6
20260502190007 68 5 2.0 9.0 0.00 0.00 0.00 43 1019.0
20260502184514 68 335 1.0 6.0 0.00 0.00 0.00 44 1019.7
20260502184504 68 359 2.0 6.0 0.00 0.00 0.00 44 1019.1
20260502183020 68 4 5.0 12.0 0.00 0.00 0.00 41 1019.3
20260502183013 68 324 5.0 12.0 0.00 0.00 0.00 42 1019.9
20260502181526 67 325 4.0 9.0 0.00 0.00 0.00 44 1020.2
20260502181518 67 17 5.0 10.0 0.00 0.00 0.00 43 1019.5
20260502163104 65 334 1.0 10.0 0.00 0.00 0.00 41 1020.9
20260502163021 65 16 2.0 10.0 0.00 0.00 0.00 42 1020.3
20260502161603 65 342 2.0 9.0 0.00 0.00 0.00 43 1020.9
20260502161512 65 354 1.0 10.0 0.00 0.00 0.00 43 1020.3
20260502151545 63 45 1.0 9.0 0.00 0.00 0.00 45 1020.2
20260502151526 63 298 1.0 9.0 0.00 0.00 0.00 47 1020.8
20260502150120 63 295 1.0 6.0 0.00 0.00 0.00 50 1020.9
20260502140126 57 284 0.0 1.0 0.00 0.00 0.00 77 1020.9
20260502123031 49 304 0.0 0.0 0.00 0.00 0.00 95 1019.9
20260502123029 49 49 0.0 0.0 0.00 0.00 0.00 94 1019.4
20260502121524 48 49 0.0 0.0 0.00 0.00 0.00 94 1019.1
20260502121519 48 304 0.0 0.0 0.00 0.00 0.00 94 1019.6
20260502114519 47 49 0.0 0.0 0.00 0.00 0.00 94 1018.5
20260502114513 47 304 0.0 0.0 0.00 0.00 0.00 94 1019.2
20260502113018 48 48 0.0 0.0 0.00 0.00 0.00 94 1018.4
20260502113011 48 304 0.0 0.0 0.00 0.00 0.00 95 1019.1
20260502111527 48 48 0.0 0.0 0.00 0.00 0.00 93 1018.3
20260502111511 48 304 0.0 0.0 0.00 0.00 0.00 94 1019.0
20260502110034 48 49 0.0 0.0 0.00 0.00 0.00 93 1018.2
20260502110014 48 304 0.0 0.0 0.00 0.00 0.00 93 1018.9
20260502104548 48 304 0.0 0.0 0.00 0.00 0.00 92 1018.7
20260502104525 48 49 0.0 0.0 0.00 0.00 0.00 92 1018.1
20260502103122 48 304 0.0 0.0 0.00 0.00 0.00 91 1018.7
20260502103024 49 49 0.0 0.0 0.00 0.00 0.00 90 1018.0
20260502101524 49 49 0.0 0.0 0.00 0.00 0.00 89 1017.8
20260502091526 51 51 0.0 1.0 0.00 0.00 0.00 89 1017.5
20260502091518 51 306 0.0 1.0 0.00 0.00 0.00 89 1018.3
20260502071505 54 14 0.0 1.0 0.00 0.00 0.00 86 1017.5
20260502070010 54 26 0.0 1.0 0.00 0.00 0.00 84 1017.4
20260502070002 54 281 0.0 1.0 0.00 0.00 0.00 85 1018.2
20260502064614 54 302 0.0 1.0 0.00 0.00 0.00 85 1018.2
20260502064505 54 53 0.0 1.0 0.00 0.00 0.00 84 1017.5
20260502063107 55 306 0.0 1.0 0.00 0.00 0.00 85 1018.4
20260502063017 55 40 0.0 1.0 0.00 0.00 0.00 85 1017.8
20260502061613 54 286 0.0 1.0 0.00 0.00 0.00 83 1018.4
20260502061505 54 31 0.0 2.0 0.00 0.00 0.00 83 1017.7
20260502060056 55 295 0.0 2.0 0.00 0.00 0.00 83 1018.6
20260502060008 55 11 0.0 2.0 0.00 0.00 0.00 82 1017.8
20260502054555 55 278 0.0 1.0 0.00 0.00 0.00 84 1018.6
20260502054518 55 22 0.0 1.0 0.00 0.00 0.00 84 1017.9
20260502053103 55 294 0.0 1.0 0.00 0.00 0.00 83 1018.6
20260502053005 55 39 0.0 1.0 0.00 0.00 0.00 82 1017.9
20260502051552 55 275 0.0 1.0 0.00 0.00 0.00 82 1018.6
20260502051509 55 20 0.0 1.0 0.00 0.00 0.00 82 1017.8
20260502050050 55 313 0.0 0.0 0.00 0.00 0.00 82 1018.5
20260502050006 55 58 0.0 0.0 0.00 0.00 0.00 81 1017.8
20260502044550 55 332 0.0 0.0 0.00 0.00 0.00 80 1018.6
20260502044509 55 77 0.0 0.0 0.00 0.00 0.00 79 1017.7
20260502043058 56 332 0.0 0.0 0.00 0.00 0.00 77 1018.5
20260502043010 56 77 0.0 0.0 0.00 0.00 0.00 76 1017.8
20260502041553 56 333 0.0 0.0 0.00 0.00 0.00 77 1018.7
20260502041508 56 78 0.0 0.0 0.00 0.00 0.00 77 1017.8
20260502040054 56 333 0.0 0.0 0.00 0.00 0.00 77 1018.6
20260502040011 56 78 0.0 0.0 0.00 0.00 0.00 76 1017.7
20260502034547 56 333 0.0 0.0 0.00 0.00 0.00 76 1018.5
20260502034520 56 78 0.0 0.0 0.00 0.00 0.00 76 1017.7
20260502033046 57 332 0.0 0.0 0.00 0.00 0.00 76 1018.5
20260502033010 57 78 0.0 0.0 0.00 0.00 0.00 76 1017.6
20260502031549 57 332 0.0 0.0 0.00 0.00 0.00 77 1018.4
20260502031514 57 77 0.0 0.0 0.00 0.00 0.00 76 1017.5
20260502030046 58 332 0.0 0.0 0.00 0.00 0.00 76 1018.5
20260502030013 58 77 0.0 0.0 0.00 0.00 0.00 75 1017.6
20260502024556 58 332 0.0 0.0 0.00 0.00 0.00 77 1018.3
20260502024510 58 77 0.0 0.0 0.00 0.00 0.00 76 1017.4
20260502023045 59 333 0.0 0.0 0.00 0.00 0.00 73 1018.1
20260502023013 59 78 0.0 0.0 0.00 0.00 0.00 72 1017.4
20260502021550 59 333 0.0 0.0 0.00 0.00 0.00 72 1017.8
20260502021511 59 78 0.0 0.0 0.00 0.00 0.00 71 1017.1
20260502020046 60 333 0.0 0.0 0.00 0.00 0.00 73 1017.7
20260502020008 60 78 0.0 0.0 0.00 0.00 0.00 72 1017.1
20260502014543 60 333 0.0 0.0 0.00 0.00 0.00 72 1017.7
20260502014514 60 78 0.0 0.0 0.00 0.00 0.00 72 1016.9
20260502013042 61 333 0.0 0.0 0.00 0.00 0.00 70 1017.6
20260502013006 61 77 0.0 0.0 0.00 0.00 0.00 69 1016.8
20260502011542 62 333 0.0 0.0 0.00 0.00 0.00 68 1017.5
20260502011508 62 78 0.0 0.0 0.00 0.00 0.00 67 1016.8
20260502010042 62 346 0.0 0.0 0.00 0.00 0.00 66 1017.4
20260502010011 62 90 0.0 0.0 0.00 0.00 0.00 66 1016.6
20260502004541 62 333 0.0 0.0 0.00 0.00 0.00 67 1017.2
20260502004508 62 78 0.0 0.0 0.00 0.00 0.00 66 1016.4
20260502003025 62 314 0.0 0.0 0.00 0.00 0.00 65 1016.6
20260502003008 62 59 0.0 0.0 0.00 0.00 0.00 64 1015.9